This is the latest recevied weather packets stored in our database for station/object IK6ZNK-3. If no packets are shown the sender has not sent any weather packets the latest 10 day(s).
| Time | Temp. | Humidity | Pressure | Rain* | Wind** | Luminosity | Snow |
|---|---|---|---|---|---|---|---|
| 1777855807 | 16.11° C | 59% | 1009.6 hPa | 0 mm | - | - | - |
| 1777855206 | 16.11° C | 61% | 1009.8 hPa | 0 mm | - | - | - |
| 1777854607 | 16.11° C | 60% | 1009.6 hPa | 0 mm | - | - | - |
| 1777854006 | 16.11° C | 60% | 1009.8 hPa | 0 mm | - | - | - |
| 1777853406 | 16.11° C | 60% | 1009.8 hPa | 0 mm | - | - | - |
| 1777852806 | 16.67° C | 61% | 1009.9 hPa | 0 mm | - | - | - |
| 1777852206 | 16.67° C | 60% | 1010 hPa | 0 mm | - | - | - |
| 1777851607 | 16.67° C | 60% | 1010 hPa | 0 mm | - | - | - |
| 1777851007 | 16.67° C | 60% | 1010 hPa | 0 mm | - | - | - |
| 1777850406 | 16.67° C | 60% | 1009.9 hPa | 0 mm | - | - | - |
| 1777849806 | 17.22° C | 58% | 1010 hPa | 0 mm | - | - | - |
| 1777849207 | 16.67° C | 58% | 1009.9 hPa | 0 mm | - | - | - |
| 1777848606 | 17.22° C | 59% | 1010 hPa | 0 mm | - | - | - |
| 1777848006 | 16.67° C | 58% | 1010.2 hPa | 0 mm | - | - | - |
| 1777847407 | 16.67° C | 59% | 1010.3 hPa | 0 mm | - | - | - |
| 1777846807 | 16.67° C | 61% | 1010.1 hPa | 0 mm | - | - | - |
| 1777846206 | 16.67° C | 61% | 1009.9 hPa | 0 mm | - | - | - |
| 1777845609 | 16.67° C | 62% | 1009.8 hPa | 0 mm | - | - | - |
| 1777845006 | 16.67° C | 63% | 1010 hPa | 0 mm | - | - | - |
| 1777844406 | 16.67° C | 62% | 1009.9 hPa | 0 mm | - | - | - |
| 1777843807 | 16.67° C | 62% | 1010.3 hPa | 0 mm | - | - | - |
| 1777843207 | 16.67° C | 60% | 1010.2 hPa | 0 mm | - | - | - |
| 1777842606 | 16.67° C | 58% | 1010.1 hPa | 0 mm | - | - | - |
| 1777842006 | 17.22° C | 55% | 1010.3 hPa | 0 mm | - | - | - |
| 1777841406 | 17.22° C | 51% | 1010.2 hPa | 0 mm | - | - | - |
* Rain latest hour (hover to see other rain measurements)
** Current wind speed in m/s (hover to see current wind gust speed)